Flag for Vietnam Weather past 2 weeks in Hanoi, Vietnam

Now
82 °F

Broken clouds.


Feels Like: 88 °F
Forecast: 73 / 90 °F
Wind: 15 mph from Southeast

Location: Ha Noi Airport

Current Time: Mar 31, 2015 at 5:22:44 PM

Latest Report: Mar 31, 2015 at 5:00 PM


Visibility: N/A

Pressure: 29.71 "Hg

Humidity: 74%

Dew point: 73 °F

Location of HanoiLocation

Historic Weather in Hanoi — Graph

°F

Hanoi temperature yesterday

Maximum temperature yesterday: 86 °F (at 1:30 PM)
Minimum temperature yesterday: 73 °F (at 2:00 AM)
Average temperature yesterday: 79 °F

Past Weeks' High & Low Weather Summary

 TemperatureHumidityPressure
High86 °F (Mar 18, 1:30 PM)100% (Mar 16, 10:00 PM)30.24 "Hg (Mar 16, 10:00 PM)
Low64 °F (Mar 25, 7:00 AM)59% (Mar 30, 1:30 PM)29.62 "Hg (Mar 17, 3:00 PM)
Average75 °F84%29.95 "Hg
* Reported Mar 16 4:00 PM — Mar 31 4:00 PM, Hanoi, Weather by CustomWeather, © 2015

Note: Actual official high and low records may vary slightly from our data, if they occured in-between our weather recording intervals... More about our weather records

Advertising

Hanoi weather history for previous 24 hours

 ConditionsComfort  
Time TempWeatherWind HumidityBarometerVisibility
4:00 PM
Tue, Mar 31
84 °FPartly sunny.16 mph70%29.71 "HgN/A
3:30 PM86 °FPartly sunny.16 mph66%29.71 "HgN/A
3:00 PM86 °FPartly sunny.16 mph66%29.71 "HgN/A
2:30 PM86 °FPartly sunny.14 mph66%29.74 "HgN/A
2:00 PM86 °FBroken clouds.14 mph62%29.74 "HgN/A
1:30 PM86 °FBroken clouds.13 mph66%29.74 "HgN/A
1:00 PM86 °FBroken clouds.13 mph66%29.77 "HgN/A
12:30 PM86 °FBroken clouds.12 mph62%29.80 "HgN/A
12:00 PM84 °FBroken clouds.12 mph66%29.80 "HgN/A
11:30 AM82 °FBroken clouds.10 mph74%29.83 "HgN/A
11:00 AM84 °FBroken clouds.13 mph70%29.83 "HgN/A
10:30 AM81 °FBroken clouds.12 mph79%29.86 "HgN/A
10:00 AM81 °FBroken clouds.10 mph79%29.86 "HgN/A
9:30 AM79 °FBroken clouds.9 mph79%29.86 "Hg6 mi
9:00 AM79 °FBroken clouds.9 mph84%29.86 "Hg6 mi
8:30 AM79 °FBroken clouds.9 mph84%29.86 "Hg6 mi
8:00 AM77 °FBroken clouds.8 mph89%29.86 "Hg6 mi
7:30 AM77 °FBroken clouds.8 mph89%29.86 "Hg5 mi
7:00 AM77 °FBroken clouds.8 mph89%29.83 "Hg6 mi
6:30 AM75 °FBroken clouds.9 mph94%29.83 "Hg6 mi
6:00 AM75 °FBroken clouds.9 mph89%29.80 "Hg5 mi
5:30 AM75 °FPartly cloudy.8 mph94%29.80 "Hg6 mi
5:00 AM77 °FPassing clouds.9 mph83%29.80 "Hg4 mi
4:30 AM75 °FPassing clouds.8 mph89%29.80 "HgN/A
4:00 AM75 °FPartly cloudy.8 mph89%29.77 "Hg6 mi
3:30 AM75 °FPartly cloudy.8 mph89%29.77 "Hg4 mi
3:00 AM75 °FPartly cloudy.8 mph94%29.77 "Hg4 mi
2:30 AM77 °FPartly cloudy.9 mph89%29.77 "Hg4 mi
2:00 AM77 °FPartly cloudy.10 mph89%29.80 "Hg4 mi
1:30 AM77 °FPassing clouds.8 mph89%29.80 "Hg5 mi
1:00 AM77 °FPassing clouds.9 mph89%29.83 "Hg6 mi
12:30 AM77 °FPassing clouds.10 mph89%29.83 "HgN/A
12:00 AM77 °FPassing clouds.12 mph89%29.83 "HgN/A
11:30 PM
Mon, Mar 30
77 °FPartly cloudy.10 mph89%29.83 "HgN/A
11:00 PM77 °FPartly cloudy.13 mph83%29.83 "HgN/A
10:30 PM77 °FPartly cloudy.14 mph83%29.83 "HgN/A
10:00 PM79 °FPassing clouds.15 mph79%29.83 "HgN/A
9:30 PM79 °FPassing clouds.12 mph79%29.86 "HgN/A
9:00 PM79 °FPartly cloudy.12 mph79%29.83 "HgN/A
8:30 PM79 °FPartly cloudy.12 mph84%29.80 "HgN/A
8:00 PM79 °FPassing clouds.12 mph79%29.80 "HgN/A
7:30 PM79 °FPassing clouds.15 mph79%29.80 "HgN/A
7:00 PM81 °FPassing clouds.10 mph74%29.80 "HgN/A
6:30 PM81 °FPassing clouds.14 mph74%29.77 "HgN/A
6:00 PM81 °FBroken clouds.14 mph74%29.77 "HgN/A
5:30 PM82 °FBroken clouds.16 mph74%29.77 "HgN/A
5:00 PM82 °FBroken clouds.16 mph70%29.77 "HgN/A
Weather by CustomWeather, © 2015

See weather overviewHow to use our weather pages